Tracking 30922 objects as of 2-Jul-2025
HD Live streaming from Space Station
objects crossing your sky now

DELTA 1 DEB

Track DELTA 1 DEB now!
10-day predictions


NORAD ID: 21270
Int'l Code: 1975-052F
Perigee: 1,082.1 km
Apogee: 1,770.6 km
Inclination: 99.4 °
Period: 114.2 minutes
Semi major axis: 7797 km
RCS: 0.0854 m2 (small)
Launch date: June 12, 1975
Source: United States (US)
Launch site: AIR FORCE WESTERN TEST RANGE (AFWTR)

Note: This is SATELLITE DEBRIS
Your satellite tracking list
Your tracking list is empty




NASA's NSSDC Master Catalog

Two Line Element Set (TLE):
1 21270U 75052F   25182.51807531  .00001286  00000-0  51760-2 0  9997
2 21270  99.4485 276.5052 0441520 246.4250 122.5814 12.60905708564971
Source of the keplerian elements: AFSPC